Year,Month,Day,Hour,Minute,Value (Times are PST for temperature in C)
2014,03,07,00,00,8.30
2014,03,07,00,01,8.30
2014,03,07,00,02,8.30
2014,03,07,00,03,8.30
2014,03,07,00,04,8.30
2014,03,07,00,05,8.30
2014,03,07,00,06,8.30
2014,03,07,00,07,8.30
2014,03,07,00,08,8.30
2014,03,07,00,09,8.30
2014,03,07,00,10,8.30
2014,03,07,00,11,8.30
2014,03,07,00,12,8.30
2014,03,07,00,13,8.30
2014,03,07,00,14,8.30
2014,03,07,00,15,8.30
2014,03,07,00,16,8.30
2014,03,07,00,17,8.30
2014,03,07,00,18,8.30
2014,03,07,00,19,8.30
2014,03,07,00,20,8.30
2014,03,07,00,21,8.30
2014,03,07,00,22,8.30
2014,03,07,00,23,8.30
2014,03,07,00,24,8.30
2014,03,07,00,25,8.30
2014,03,07,00,26,8.30
2014,03,07,00,27,8.20
2014,03,07,00,28,8.20
2014,03,07,00,29,8.20
2014,03,07,00,30,8.20
2014,03,07,00,31,8.20
2014,03,07,00,32,8.20
2014,03,07,00,33,8.10
2014,03,07,00,34,8.10
2014,03,07,00,35,8.10
2014,03,07,00,36,8.10
2014,03,07,00,37,8.10
2014,03,07,00,38,7.90
2014,03,07,00,39,7.80
2014,03,07,00,40,7.70
2014,03,07,00,41,7.60
2014,03,07,00,42,7.60
2014,03,07,00,43,7.50
2014,03,07,00,44,7.50
2014,03,07,00,45,7.40
2014,03,07,00,46,7.40
2014,03,07,00,47,7.30
2014,03,07,00,48,7.30
2014,03,07,00,49,7.30
2014,03,07,00,50,7.20
2014,03,07,00,51,7.20
2014,03,07,00,52,7.20
2014,03,07,00,53,7.20
2014,03,07,00,54,7.20
2014,03,07,00,55,7.20
2014,03,07,00,56,7.20
2014,03,07,00,57,7.20
2014,03,07,00,58,7.30
2014,03,07,00,59,7.30
2014,03,07,01,00,7.40
2014,03,07,01,01,7.50
2014,03,07,01,02,7.70
2014,03,07,01,03,7.80
2014,03,07,01,04,7.80
2014,03,07,01,05,7.90
2014,03,07,01,06,8.00
2014,03,07,01,07,8.00
2014,03,07,01,08,8.10
2014,03,07,01,09,8.00
2014,03,07,01,10,8.00
2014,03,07,01,11,8.00
2014,03,07,01,12,7.90
2014,03,07,01,13,7.80
2014,03,07,01,14,7.80
2014,03,07,01,15,7.80
2014,03,07,01,16,7.70
2014,03,07,01,17,7.70
2014,03,07,01,18,7.60
2014,03,07,01,19,7.60
2014,03,07,01,20,7.70
2014,03,07,01,21,7.70
2014,03,07,01,22,7.80
2014,03,07,01,23,7.80
2014,03,07,01,24,7.90
2014,03,07,01,25,7.90
2014,03,07,01,26,7.90
2014,03,07,01,27,7.90
2014,03,07,01,28,8.00
2014,03,07,01,29,8.00
2014,03,07,01,30,8.00
2014,03,07,01,31,8.00
2014,03,07,01,32,7.90
2014,03,07,01,33,7.90
2014,03,07,01,34,7.90
2014,03,07,01,35,7.90
2014,03,07,01,36,7.90
2014,03,07,01,37,7.90
2014,03,07,01,38,7.90
2014,03,07,01,39,8.00
2014,03,07,01,40,8.00
2014,03,07,01,41,8.00
2014,03,07,01,42,8.00
2014,03,07,01,43,8.10
2014,03,07,01,44,8.10
2014,03,07,01,45,8.10
2014,03,07,01,46,8.10
2014,03,07,01,47,8.10
2014,03,07,01,48,8.10
2014,03,07,01,49,8.20
2014,03,07,01,50,8.20
2014,03,07,01,51,8.20
2014,03,07,01,52,8.20
2014,03,07,01,53,8.20
2014,03,07,01,54,8.20
2014,03,07,01,55,8.20
2014,03,07,01,56,8.20
2014,03,07,01,57,8.10
2014,03,07,01,58,8.00
2014,03,07,01,59,7.90
2014,03,07,02,00,7.80
2014,03,07,02,01,7.70
2014,03,07,02,02,7.60
2014,03,07,02,03,7.50
2014,03,07,02,04,7.50
2014,03,07,02,05,7.40
2014,03,07,02,06,7.30
2014,03,07,02,07,7.30
2014,03,07,02,08,7.20
2014,03,07,02,09,7.20
2014,03,07,02,10,7.20
2014,03,07,02,11,7.10
2014,03,07,02,12,7.10
2014,03,07,02,13,7.10
2014,03,07,02,14,7.10
2014,03,07,02,15,7.00
2014,03,07,02,16,7.00
2014,03,07,02,17,7.00
2014,03,07,02,18,7.00
2014,03,07,02,19,6.90
2014,03,07,02,20,6.90
2014,03,07,02,21,6.90
2014,03,07,02,22,7.00
2014,03,07,02,23,7.00
2014,03,07,02,24,7.00
2014,03,07,02,25,7.00
2014,03,07,02,26,7.00
2014,03,07,02,27,7.10
2014,03,07,02,28,7.20
2014,03,07,02,29,7.30
2014,03,07,02,30,7.30
2014,03,07,02,31,7.40
2014,03,07,02,32,7.50
2014,03,07,02,33,7.60
2014,03,07,02,34,7.70
2014,03,07,02,35,7.80
2014,03,07,02,36,7.80
2014,03,07,02,37,7.90
2014,03,07,02,38,7.90
2014,03,07,02,39,8.00
2014,03,07,02,40,8.00
2014,03,07,02,41,8.10
2014,03,07,02,42,8.10
2014,03,07,02,43,8.10
2014,03,07,02,44,8.10
2014,03,07,02,45,8.10
2014,03,07,02,46,8.20
2014,03,07,02,47,8.20
2014,03,07,02,48,8.20
2014,03,07,02,49,8.20
2014,03,07,02,50,8.20
2014,03,07,02,51,8.20
2014,03,07,02,52,8.20
2014,03,07,02,53,8.20
2014,03,07,02,54,8.20
2014,03,07,02,55,8.20
2014,03,07,02,56,8.20
2014,03,07,02,57,8.20
2014,03,07,02,58,8.20
2014,03,07,02,59,8.20
2014,03,07,03,00,8.20
2014,03,07,03,01,8.20
2014,03,07,03,02,8.20
2014,03,07,03,03,8.20
2014,03,07,03,04,8.20
2014,03,07,03,05,8.20
2014,03,07,03,06,8.20
2014,03,07,03,07,8.20
2014,03,07,03,08,8.20
2014,03,07,03,09,8.20
2014,03,07,03,10,8.20
2014,03,07,03,11,8.30
2014,03,07,03,12,8.30
2014,03,07,03,13,8.30
2014,03,07,03,14,8.30
2014,03,07,03,15,8.30
2014,03,07,03,16,8.30
2014,03,07,03,17,8.30
2014,03,07,03,18,8.30
2014,03,07,03,19,8.30
2014,03,07,03,20,8.30
2014,03,07,03,21,8.30
2014,03,07,03,22,8.30
2014,03,07,03,23,8.30
2014,03,07,03,24,8.30
2014,03,07,03,25,8.30
2014,03,07,03,26,8.30
2014,03,07,03,27,8.30
2014,03,07,03,28,8.30
2014,03,07,03,29,8.30
2014,03,07,03,30,8.20
2014,03,07,03,31,8.10
2014,03,07,03,32,8.00
2014,03,07,03,33,7.90
2014,03,07,03,34,7.90
2014,03,07,03,35,7.90
2014,03,07,03,36,7.90
2014,03,07,03,37,7.90
2014,03,07,03,38,7.90
2014,03,07,03,39,7.80
2014,03,07,03,40,7.70
2014,03,07,03,41,7.60
2014,03,07,03,42,7.60
2014,03,07,03,43,7.50
2014,03,07,03,44,7.50
2014,03,07,03,45,7.40
2014,03,07,03,46,7.30
2014,03,07,03,47,7.30
2014,03,07,03,48,7.30
2014,03,07,03,49,7.20
2014,03,07,03,50,7.20
2014,03,07,03,51,7.20
2014,03,07,03,52,7.20
2014,03,07,03,53,7.20
2014,03,07,03,54,7.10
2014,03,07,03,55,7.10
2014,03,07,03,56,7.00
2014,03,07,03,57,7.00
2014,03,07,03,58,7.00
2014,03,07,03,59,7.00
2014,03,07,04,00,7.00
2014,03,07,04,01,7.00
2014,03,07,04,02,7.00
2014,03,07,04,03,6.90
2014,03,07,04,04,6.90
2014,03,07,04,05,6.90
2014,03,07,04,06,6.90
2014,03,07,04,07,6.90
2014,03,07,04,08,6.90
2014,03,07,04,09,7.00
2014,03,07,04,10,7.00
2014,03,07,04,11,7.10
2014,03,07,04,12,7.10
2014,03,07,04,13,7.20
2014,03,07,04,14,7.20
2014,03,07,04,15,7.20
2014,03,07,04,16,7.20
2014,03,07,04,17,7.20
2014,03,07,04,18,7.20
2014,03,07,04,19,7.20
2014,03,07,04,20,7.20
2014,03,07,04,21,7.20
2014,03,07,04,22,7.30
2014,03,07,04,23,7.30
2014,03,07,04,24,7.30
2014,03,07,04,25,7.30
2014,03,07,04,26,7.30
2014,03,07,04,27,7.30
2014,03,07,04,28,7.30
2014,03,07,04,29,7.30
2014,03,07,04,30,7.30
2014,03,07,04,31,7.30
2014,03,07,04,32,7.30
2014,03,07,04,33,7.30
2014,03,07,04,34,7.30
2014,03,07,04,35,7.30
2014,03,07,04,36,7.40
2014,03,07,04,37,7.40
2014,03,07,04,38,7.50
2014,03,07,04,39,7.50
2014,03,07,04,40,7.60
2014,03,07,04,41,7.60
2014,03,07,04,42,7.60
2014,03,07,04,43,7.60
2014,03,07,04,44,7.50
2014,03,07,04,45,7.50
2014,03,07,04,46,7.40
2014,03,07,04,47,7.40
2014,03,07,04,48,7.40
2014,03,07,04,49,7.30
2014,03,07,04,50,7.30
2014,03,07,04,51,7.30
2014,03,07,04,52,7.30
2014,03,07,04,53,7.30
2014,03,07,04,54,7.20
2014,03,07,04,55,7.20
2014,03,07,04,56,7.20
2014,03,07,04,57,7.20
2014,03,07,04,58,7.20
2014,03,07,04,59,7.20
2014,03,07,05,00,7.20
2014,03,07,05,01,7.20
2014,03,07,05,02,7.20
2014,03,07,05,03,7.20
2014,03,07,05,04,7.10
2014,03,07,05,05,7.10
2014,03,07,05,06,7.10
2014,03,07,05,07,7.10
2014,03,07,05,08,7.10
2014,03,07,05,09,7.10
2014,03,07,05,10,7.10
2014,03,07,05,11,7.10
2014,03,07,05,12,7.10
2014,03,07,05,13,7.00
2014,03,07,05,14,7.00
2014,03,07,05,15,6.90
2014,03,07,05,16,6.80
2014,03,07,05,17,6.70
2014,03,07,05,18,6.70
2014,03,07,05,19,6.70
2014,03,07,05,20,6.60
2014,03,07,05,21,6.60
2014,03,07,05,22,6.60
2014,03,07,05,23,6.50
2014,03,07,05,24,6.50
2014,03,07,05,25,6.50
2014,03,07,05,26,6.60
2014,03,07,05,27,6.50
2014,03,07,05,28,6.50
2014,03,07,05,29,6.40
2014,03,07,05,30,6.40
2014,03,07,05,31,6.30
2014,03,07,05,32,6.30
2014,03,07,05,33,6.30
2014,03,07,05,34,6.30
2014,03,07,05,35,6.20
2014,03,07,05,36,6.20
2014,03,07,05,37,6.20
2014,03,07,05,38,6.20
2014,03,07,05,39,6.20
2014,03,07,05,40,6.20
2014,03,07,05,41,6.10
2014,03,07,05,42,6.10
2014,03,07,05,43,6.10
2014,03,07,05,44,6.10
2014,03,07,05,45,6.10
2014,03,07,05,46,6.10
2014,03,07,05,47,6.10
2014,03,07,05,48,6.10
2014,03,07,05,49,6.10
2014,03,07,05,50,6.10
2014,03,07,05,51,6.10
2014,03,07,05,52,6.10
2014,03,07,05,53,6.10
2014,03,07,05,54,6.10
2014,03,07,05,55,6.10
2014,03,07,05,56,6.00
2014,03,07,05,57,6.00
2014,03,07,05,58,6.00
2014,03,07,05,59,6.00
2014,03,07,06,00,6.00
2014,03,07,06,01,6.00
2014,03,07,06,02,6.00
2014,03,07,06,03,6.00
2014,03,07,06,04,6.00
2014,03,07,06,05,6.00
2014,03,07,06,06,6.00
2014,03,07,06,07,6.00
2014,03,07,06,08,6.00
2014,03,07,06,09,6.00
2014,03,07,06,10,6.00
2014,03,07,06,11,6.00
2014,03,07,06,12,6.00
2014,03,07,06,13,6.00
2014,03,07,06,14,6.00
2014,03,07,06,15,6.00
2014,03,07,06,16,6.00
2014,03,07,06,17,6.00
2014,03,07,06,18,6.00
2014,03,07,06,19,6.00
2014,03,07,06,20,6.00
2014,03,07,06,21,6.00
2014,03,07,06,22,6.00
2014,03,07,06,23,6.00
2014,03,07,06,24,6.00
2014,03,07,06,25,6.10
2014,03,07,06,26,6.10
2014,03,07,06,27,6.10
2014,03,07,06,28,6.10
2014,03,07,06,29,6.10
2014,03,07,06,30,6.10
2014,03,07,06,31,6.10
2014,03,07,06,32,6.10
2014,03,07,06,33,6.10
2014,03,07,06,34,6.10
2014,03,07,06,35,6.10
2014,03,07,06,36,6.10
2014,03,07,06,37,6.00
2014,03,07,06,38,6.10
2014,03,07,06,39,6.10
2014,03,07,06,40,6.10
2014,03,07,06,41,6.10
2014,03,07,06,42,6.10
2014,03,07,06,43,6.10
2014,03,07,06,44,6.10
2014,03,07,06,45,6.10
2014,03,07,06,46,6.10
2014,03,07,06,47,6.10
2014,03,07,06,48,6.10
2014,03,07,06,49,6.10
2014,03,07,06,50,6.10
2014,03,07,06,51,6.10
2014,03,07,06,52,6.10
2014,03,07,06,53,6.10
2014,03,07,06,54,6.10
2014,03,07,06,55,6.10
2014,03,07,06,56,6.10
2014,03,07,06,57,6.10
2014,03,07,06,58,6.10
2014,03,07,06,59,6.10
2014,03,07,07,00,6.10
2014,03,07,07,01,6.10
2014,03,07,07,02,6.10
2014,03,07,07,03,6.10
2014,03,07,07,04,6.10
2014,03,07,07,05,6.10
2014,03,07,07,06,6.10
2014,03,07,07,07,6.10
2014,03,07,07,08,6.10
2014,03,07,07,09,6.10
2014,03,07,07,10,6.10
2014,03,07,07,11,6.10
2014,03,07,07,12,6.10
2014,03,07,07,13,6.10
2014,03,07,07,14,6.10
2014,03,07,07,15,6.10
2014,03,07,07,16,6.00
2014,03,07,07,17,6.00
2014,03,07,07,18,6.00
2014,03,07,07,19,6.00
2014,03,07,07,20,6.00
2014,03,07,07,21,6.00
2014,03,07,07,22,5.90
2014,03,07,07,23,5.90
2014,03,07,07,24,5.90
2014,03,07,07,25,5.90
2014,03,07,07,26,5.90
2014,03,07,07,27,5.90
2014,03,07,07,28,5.90
2014,03,07,07,29,5.90
2014,03,07,07,30,5.90
2014,03,07,07,31,5.90
2014,03,07,07,32,5.90
2014,03,07,07,33,5.90
2014,03,07,07,34,5.90
2014,03,07,07,35,5.90
2014,03,07,07,36,5.90
2014,03,07,07,37,5.90
2014,03,07,07,38,5.90
2014,03,07,07,39,5.90
2014,03,07,07,40,5.90
2014,03,07,07,41,5.90
2014,03,07,07,42,5.90
2014,03,07,07,43,5.90
2014,03,07,07,44,6.00
2014,03,07,07,45,6.00
2014,03,07,07,46,6.00
2014,03,07,07,47,6.00
2014,03,07,07,48,6.00
2014,03,07,07,49,6.10
2014,03,07,07,50,6.10
2014,03,07,07,51,6.10
2014,03,07,07,52,6.10
2014,03,07,07,53,6.10
2014,03,07,07,54,6.10
2014,03,07,07,55,6.10
2014,03,07,07,56,6.10
2014,03,07,07,57,6.20
2014,03,07,07,58,6.20
2014,03,07,07,59,6.20
2014,03,07,08,00,6.20
2014,03,07,08,01,6.20
2014,03,07,08,02,6.20
2014,03,07,08,03,6.20
2014,03,07,08,04,6.30
2014,03,07,08,05,6.30
2014,03,07,08,06,6.30
2014,03,07,08,07,6.30
2014,03,07,08,08,6.30
2014,03,07,08,09,6.30
2014,03,07,08,10,6.30
2014,03,07,08,11,6.40
2014,03,07,08,12,6.40
2014,03,07,08,13,6.40
2014,03,07,08,14,6.40
2014,03,07,08,15,6.40
2014,03,07,08,16,6.40
2014,03,07,08,17,6.40
2014,03,07,08,18,6.40
2014,03,07,08,19,6.50
2014,03,07,08,20,6.50
2014,03,07,08,21,6.50
2014,03,07,08,22,6.60
2014,03,07,08,23,6.60
2014,03,07,08,24,6.60
2014,03,07,08,25,6.60
2014,03,07,08,26,6.60
2014,03,07,08,27,6.60
2014,03,07,08,28,6.60
2014,03,07,08,29,6.60
2014,03,07,08,30,6.60
2014,03,07,08,31,6.60
2014,03,07,08,32,6.60
2014,03,07,08,33,6.60
2014,03,07,08,34,6.60
2014,03,07,08,35,6.60
2014,03,07,08,36,6.60
2014,03,07,08,37,6.70
2014,03,07,08,38,6.70
2014,03,07,08,39,6.70
2014,03,07,08,40,6.70
2014,03,07,08,41,6.70
2014,03,07,08,42,6.70
2014,03,07,08,43,6.70
2014,03,07,08,44,6.70
2014,03,07,08,45,6.80
2014,03,07,08,46,6.80
2014,03,07,08,47,6.80
2014,03,07,08,48,6.80
2014,03,07,08,49,6.90
2014,03,07,08,50,6.90
2014,03,07,08,51,6.90
2014,03,07,08,52,7.00
2014,03,07,08,53,7.00
2014,03,07,08,54,7.10
2014,03,07,08,55,7.10
2014,03,07,08,56,7.20
2014,03,07,08,57,7.20
2014,03,07,08,58,7.30
2014,03,07,08,59,7.30
2014,03,07,09,00,7.30
2014,03,07,09,01,7.40
2014,03,07,09,02,7.40
2014,03,07,09,03,7.40
2014,03,07,09,04,7.40
2014,03,07,09,05,7.50
2014,03,07,09,06,7.50
2014,03,07,09,07,7.50
2014,03,07,09,08,7.60
2014,03,07,09,09,7.60
2014,03,07,09,10,7.60
2014,03,07,09,11,7.60
2014,03,07,09,12,7.70
2014,03,07,09,13,7.70
2014,03,07,09,14,7.70
2014,03,07,09,15,7.80
2014,03,07,09,16,7.80
2014,03,07,09,17,7.80
2014,03,07,09,18,7.80
2014,03,07,09,19,7.90
2014,03,07,09,20,7.90
2014,03,07,09,21,7.90
2014,03,07,09,22,7.90
2014,03,07,09,23,7.90
2014,03,07,09,24,8.00
2014,03,07,09,25,8.00
2014,03,07,09,26,8.10
2014,03,07,09,27,8.10
2014,03,07,09,28,8.10
2014,03,07,09,29,8.20
2014,03,07,09,30,8.20
2014,03,07,09,31,8.20
2014,03,07,09,32,8.20
2014,03,07,09,33,8.20
2014,03,07,09,34,8.20
2014,03,07,09,35,8.20
2014,03,07,09,36,8.20
2014,03,07,09,37,8.20
2014,03,07,09,38,8.20
2014,03,07,09,39,8.20
2014,03,07,09,40,8.20
2014,03,07,09,41,8.20
2014,03,07,09,42,8.20
2014,03,07,09,43,8.20
2014,03,07,09,44,8.30
2014,03,07,09,45,8.30
2014,03,07,09,46,8.30
2014,03,07,09,47,8.30
2014,03,07,09,48,8.30
2014,03,07,09,49,8.30
2014,03,07,09,50,8.30
2014,03,07,09,51,8.30
2014,03,07,09,52,8.30
2014,03,07,09,53,8.30
2014,03,07,09,54,8.30
2014,03,07,09,55,8.40
2014,03,07,09,56,8.40
2014,03,07,09,57,8.40
2014,03,07,09,58,8.40
2014,03,07,09,59,8.40
2014,03,07,10,00,8.40
2014,03,07,10,01,8.40
2014,03,07,10,02,8.40
2014,03,07,10,03,8.50
2014,03,07,10,04,8.40
2014,03,07,10,05,8.50
2014,03,07,10,06,8.50
2014,03,07,10,07,8.50
2014,03,07,10,08,8.50
2014,03,07,10,09,8.60
2014,03,07,10,10,8.60
2014,03,07,10,11,8.60
2014,03,07,10,12,8.60
2014,03,07,10,13,8.60
2014,03,07,10,14,8.60
2014,03,07,10,15,8.70
2014,03,07,10,16,8.70
2014,03,07,10,17,8.70
2014,03,07,10,18,8.70
2014,03,07,10,19,8.70
2014,03,07,10,20,8.70
2014,03,07,10,21,8.70
2014,03,07,10,22,8.70
2014,03,07,10,23,8.70
2014,03,07,10,24,8.80
2014,03,07,10,25,8.80
2014,03,07,10,26,8.80
2014,03,07,10,27,8.80
2014,03,07,10,28,8.80
2014,03,07,10,29,8.80
2014,03,07,10,30,8.80
2014,03,07,10,31,8.80
2014,03,07,10,32,8.80
2014,03,07,10,33,8.80
2014,03,07,10,34,8.80
2014,03,07,10,35,8.80
2014,03,07,10,36,8.80
2014,03,07,10,37,8.80
2014,03,07,10,38,8.90
2014,03,07,10,39,8.90
2014,03,07,10,40,8.90
2014,03,07,10,41,9.00
2014,03,07,10,42,9.00
2014,03,07,10,43,9.10
2014,03,07,10,44,9.10
2014,03,07,10,45,9.10
2014,03,07,10,46,9.10
2014,03,07,10,47,9.10
2014,03,07,10,48,9.20
2014,03,07,10,49,9.20
2014,03,07,10,50,9.20
2014,03,07,10,51,9.20
2014,03,07,10,52,9.20
2014,03,07,10,53,9.20
2014,03,07,10,54,9.30
2014,03,07,10,55,9.30
2014,03,07,10,56,9.30
2014,03,07,10,57,9.30
2014,03,07,10,58,9.30
2014,03,07,10,59,9.40
2014,03,07,11,00,9.40
2014,03,07,11,01,9.50
2014,03,07,11,02,9.50
2014,03,07,11,03,9.50
2014,03,07,11,04,9.60
2014,03,07,11,05,9.60
2014,03,07,11,06,9.60
2014,03,07,11,07,9.60
2014,03,07,11,08,9.70
2014,03,07,11,09,9.70
2014,03,07,11,10,9.70
2014,03,07,11,11,9.70
2014,03,07,11,12,9.70
2014,03,07,11,13,9.80
2014,03,07,11,14,9.80
2014,03,07,11,15,9.80
2014,03,07,11,16,9.80
2014,03,07,11,17,9.80
2014,03,07,11,18,9.90
2014,03,07,11,19,9.90
2014,03,07,11,20,9.80
2014,03,07,11,21,9.80
2014,03,07,11,22,9.80
2014,03,07,11,23,9.80
2014,03,07,11,24,9.80
2014,03,07,11,25,9.80
2014,03,07,11,26,9.80
2014,03,07,11,27,9.80
2014,03,07,11,28,9.70
2014,03,07,11,29,9.60
2014,03,07,11,30,9.60
2014,03,07,11,31,9.60
2014,03,07,11,32,9.50
2014,03,07,11,33,9.50
2014,03,07,11,34,9.40
2014,03,07,11,35,9.40
2014,03,07,11,36,9.40
2014,03,07,11,37,9.30
2014,03,07,11,38,9.30
2014,03,07,11,39,9.30
2014,03,07,11,40,9.40
2014,03,07,11,41,9.40
2014,03,07,11,42,9.50
2014,03,07,11,43,9.50
2014,03,07,11,44,9.60
2014,03,07,11,45,9.60
2014,03,07,11,46,9.60
2014,03,07,11,47,9.60
2014,03,07,11,48,9.70
2014,03,07,11,49,9.70
2014,03,07,11,50,9.70
2014,03,07,11,51,9.70
2014,03,07,11,52,9.70
2014,03,07,11,53,9.70
2014,03,07,11,54,9.60
2014,03,07,11,55,9.60
2014,03,07,11,56,9.60
2014,03,07,11,57,9.60
2014,03,07,11,58,9.60
2014,03,07,11,59,9.60
2014,03,07,12,00,9.70
2014,03,07,12,01,9.70
2014,03,07,12,02,9.70
2014,03,07,12,03,9.70
2014,03,07,12,04,9.70
2014,03,07,12,05,9.70
2014,03,07,12,06,9.70
2014,03,07,12,07,9.70
2014,03,07,12,08,9.80
2014,03,07,12,09,9.80
2014,03,07,12,10,9.80
2014,03,07,12,11,9.80
2014,03,07,12,12,9.70
2014,03,07,12,13,9.70
2014,03,07,12,14,9.70
2014,03,07,12,15,9.70
2014,03,07,12,16,9.70
2014,03,07,12,17,9.70
2014,03,07,12,18,9.80
2014,03,07,12,19,9.80
2014,03,07,12,20,9.90
2014,03,07,12,21,9.90
2014,03,07,12,22,10.00
2014,03,07,12,23,10.10
2014,03,07,12,24,10.20
2014,03,07,12,25,10.20
2014,03,07,12,26,10.20
2014,03,07,12,27,10.30
2014,03,07,12,28,10.30
2014,03,07,12,29,10.30
2014,03,07,12,30,10.30
2014,03,07,12,31,10.30
2014,03,07,12,32,10.30
2014,03,07,12,33,10.30
2014,03,07,12,34,10.40
2014,03,07,12,35,10.60
2014,03,07,12,36,10.80
2014,03,07,12,37,11.00
2014,03,07,12,38,11.20
2014,03,07,12,39,11.30
2014,03,07,12,40,11.40
2014,03,07,12,41,11.40
2014,03,07,12,42,11.40
2014,03,07,12,43,11.40
2014,03,07,12,44,11.30
2014,03,07,12,45,11.20
2014,03,07,12,46,11.10
2014,03,07,12,47,11.10
2014,03,07,12,48,11.10
2014,03,07,12,49,11.20
2014,03,07,12,50,11.30
2014,03,07,12,51,11.40
2014,03,07,12,52,11.50
2014,03,07,12,53,11.60
2014,03,07,12,54,11.70
2014,03,07,12,55,11.90
2014,03,07,12,56,12.00
2014,03,07,12,57,12.10
2014,03,07,12,58,12.20
2014,03,07,12,59,12.30
2014,03,07,13,00,12.40
2014,03,07,13,01,12.40
2014,03,07,13,02,12.50
2014,03,07,13,03,12.50
2014,03,07,13,04,12.50
2014,03,07,13,05,12.50
2014,03,07,13,06,12.40
2014,03,07,13,07,12.30
2014,03,07,13,08,12.30
2014,03,07,13,09,12.40
2014,03,07,13,10,12.40
2014,03,07,13,11,12.40
2014,03,07,13,12,12.40
2014,03,07,13,13,12.40
2014,03,07,13,14,12.30
2014,03,07,13,15,12.30
2014,03,07,13,16,12.20
2014,03,07,13,17,12.10
2014,03,07,13,18,12.10
2014,03,07,13,19,12.00
2014,03,07,13,20,11.90
2014,03,07,13,21,11.80
2014,03,07,13,22,11.80
2014,03,07,13,23,11.70
2014,03,07,13,24,11.70
2014,03,07,13,25,11.60
2014,03,07,13,26,11.60
2014,03,07,13,27,11.60
2014,03,07,13,28,11.70
2014,03,07,13,29,11.60
2014,03,07,13,30,11.60
2014,03,07,13,31,11.60
2014,03,07,13,32,11.60
2014,03,07,13,33,11.70
2014,03,07,13,34,11.70
2014,03,07,13,35,11.70
2014,03,07,13,36,11.70
2014,03,07,13,37,11.70
2014,03,07,13,38,11.70
2014,03,07,13,39,11.80
2014,03,07,13,40,11.80
2014,03,07,13,41,11.80
2014,03,07,13,42,11.80
2014,03,07,13,43,11.90
2014,03,07,13,44,11.90
2014,03,07,13,45,11.90
2014,03,07,13,46,11.90
2014,03,07,13,47,11.90
2014,03,07,13,48,11.90
2014,03,07,13,49,11.90
2014,03,07,13,50,11.90
2014,03,07,13,51,11.90
2014,03,07,13,52,11.90
2014,03,07,13,53,11.90
2014,03,07,13,54,11.90
2014,03,07,13,55,12.00
2014,03,07,13,56,12.00
2014,03,07,13,57,12.00
2014,03,07,13,58,12.00
2014,03,07,13,59,12.00
2014,03,07,14,00,12.00
2014,03,07,14,01,12.00
2014,03,07,14,02,12.00
2014,03,07,14,03,11.90
2014,03,07,14,04,12.00
2014,03,07,14,05,12.00
2014,03,07,14,06,12.00
2014,03,07,14,07,12.00
2014,03,07,14,08,12.00
2014,03,07,14,09,12.00
2014,03,07,14,10,12.00
2014,03,07,14,11,12.10
2014,03,07,14,12,12.10
2014,03,07,14,13,12.10
2014,03,07,14,14,12.20
2014,03,07,14,15,12.20
2014,03,07,14,16,12.20
2014,03,07,14,17,12.20
2014,03,07,14,18,12.20
2014,03,07,14,19,12.20
2014,03,07,14,20,12.20
2014,03,07,14,21,12.20
2014,03,07,14,22,12.10
2014,03,07,14,23,12.10
2014,03,07,14,24,12.10
2014,03,07,14,25,12.10
2014,03,07,14,26,12.10
2014,03,07,14,27,12.10
2014,03,07,14,28,12.10
2014,03,07,14,29,12.10
2014,03,07,14,30,12.10
2014,03,07,14,31,12.10
2014,03,07,14,32,12.10
2014,03,07,14,33,12.10
2014,03,07,14,34,12.10
2014,03,07,14,35,12.10
2014,03,07,14,36,12.10
2014,03,07,14,37,12.10
2014,03,07,14,38,12.10
2014,03,07,14,39,12.10
2014,03,07,14,40,12.10
2014,03,07,14,41,12.10
2014,03,07,14,42,12.10
2014,03,07,14,43,12.10
2014,03,07,14,44,12.10
2014,03,07,14,45,12.10
2014,03,07,14,46,12.10
2014,03,07,14,47,12.10
2014,03,07,14,48,12.10
2014,03,07,14,49,12.10
2014,03,07,14,50,12.10
2014,03,07,14,51,12.10
2014,03,07,14,52,12.10
2014,03,07,14,53,12.10
2014,03,07,14,54,12.10
2014,03,07,14,55,12.10
2014,03,07,14,56,12.10
2014,03,07,14,57,12.10
2014,03,07,14,58,12.10
2014,03,07,14,59,12.10
2014,03,07,15,00,12.10
2014,03,07,15,01,12.10
2014,03,07,15,02,12.10
2014,03,07,15,03,12.10
2014,03,07,15,04,12.10
2014,03,07,15,05,12.10
2014,03,07,15,06,12.10
2014,03,07,15,07,12.10
2014,03,07,15,08,12.10
2014,03,07,15,09,12.10
2014,03,07,15,10,12.10
2014,03,07,15,11,12.10
2014,03,07,15,12,12.10
2014,03,07,15,13,12.10
2014,03,07,15,14,12.10
2014,03,07,15,15,12.10
2014,03,07,15,16,12.10
2014,03,07,15,17,12.10
2014,03,07,15,18,12.10
2014,03,07,15,19,12.10
2014,03,07,15,20,12.10
2014,03,07,15,21,12.10
2014,03,07,15,22,12.00
2014,03,07,15,23,12.00
2014,03,07,15,24,12.00
2014,03,07,15,25,12.10
2014,03,07,15,26,12.00
2014,03,07,15,27,12.00
2014,03,07,15,28,12.00
2014,03,07,15,29,12.00
2014,03,07,15,30,12.00
2014,03,07,15,31,12.00
2014,03,07,15,32,12.10
2014,03,07,15,33,12.00
2014,03,07,15,34,12.00
2014,03,07,15,35,12.10
2014,03,07,15,36,12.10
2014,03,07,15,37,12.10
2014,03,07,15,38,12.10
2014,03,07,15,39,12.10
2014,03,07,15,40,12.10
2014,03,07,15,41,12.10
2014,03,07,15,42,12.10
2014,03,07,15,43,12.10
2014,03,07,15,44,12.10
2014,03,07,15,45,12.10
2014,03,07,15,46,12.10
2014,03,07,15,47,12.10
2014,03,07,15,48,12.10
2014,03,07,15,49,12.10
2014,03,07,15,50,12.10
2014,03,07,15,51,12.10
2014,03,07,15,52,12.00
2014,03,07,15,53,12.00
2014,03,07,15,54,12.00
2014,03,07,15,55,12.00
2014,03,07,15,56,12.00
2014,03,07,15,57,12.00
2014,03,07,15,58,12.00
2014,03,07,15,59,12.00
2014,03,07,16,00,12.00
2014,03,07,16,01,12.00
2014,03,07,16,02,12.00
2014,03,07,16,03,12.00
2014,03,07,16,04,12.00
2014,03,07,16,05,12.00
2014,03,07,16,06,12.00
2014,03,07,16,07,12.00
2014,03,07,16,08,12.00
2014,03,07,16,09,12.00
2014,03,07,16,10,12.00
2014,03,07,16,11,12.00
2014,03,07,16,12,12.00
2014,03,07,16,13,12.00
2014,03,07,16,14,12.00
2014,03,07,16,15,12.00
2014,03,07,16,16,12.00
2014,03,07,16,17,12.00
2014,03,07,16,18,12.00
2014,03,07,16,19,12.00
2014,03,07,16,20,12.00
2014,03,07,16,21,12.00
2014,03,07,16,22,12.00
2014,03,07,16,23,12.00
2014,03,07,16,24,12.00
2014,03,07,16,25,11.90
2014,03,07,16,26,11.90
2014,03,07,16,27,11.90
2014,03,07,16,28,11.90
2014,03,07,16,29,11.90
2014,03,07,16,30,11.80
2014,03,07,16,31,11.80
2014,03,07,16,32,11.80
2014,03,07,16,33,11.80
2014,03,07,16,34,11.80
2014,03,07,16,35,11.80
2014,03,07,16,36,11.80
2014,03,07,16,37,11.80
2014,03,07,16,38,11.80
2014,03,07,16,39,11.70
2014,03,07,16,40,11.70
2014,03,07,16,41,11.70
2014,03,07,16,42,11.70
2014,03,07,16,43,11.70
2014,03,07,16,44,11.70
2014,03,07,16,45,11.70
2014,03,07,16,46,11.70
2014,03,07,16,47,11.70
2014,03,07,16,48,11.60
2014,03,07,16,49,11.60
2014,03,07,16,50,11.60
2014,03,07,16,51,11.60
2014,03,07,16,52,11.60
2014,03,07,16,53,11.60
2014,03,07,16,54,11.60
2014,03,07,16,55,11.60
2014,03,07,16,56,11.60
2014,03,07,16,57,11.60
2014,03,07,16,58,11.60
2014,03,07,16,59,11.60
2014,03,07,17,00,11.50
2014,03,07,17,01,11.50
2014,03,07,17,02,11.50
2014,03,07,17,03,11.50
2014,03,07,17,04,11.50
2014,03,07,17,05,11.50
2014,03,07,17,06,11.50
2014,03,07,17,07,11.50
2014,03,07,17,08,11.50
2014,03,07,17,09,11.40
2014,03,07,17,10,11.40
2014,03,07,17,11,11.40
2014,03,07,17,12,11.40
2014,03,07,17,13,11.40
2014,03,07,17,14,11.40
2014,03,07,17,15,11.40
2014,03,07,17,16,11.40
2014,03,07,17,17,11.40
2014,03,07,17,18,11.40
2014,03,07,17,19,11.40
2014,03,07,17,20,11.40
2014,03,07,17,21,11.40
2014,03,07,17,22,11.40
2014,03,07,17,23,11.40
2014,03,07,17,24,11.40
2014,03,07,17,25,11.40
2014,03,07,17,26,11.40
2014,03,07,17,27,11.40
2014,03,07,17,28,11.40
2014,03,07,17,29,11.40
2014,03,07,17,30,11.40
2014,03,07,17,31,11.30
2014,03,07,17,32,11.30
2014,03,07,17,33,11.30
2014,03,07,17,34,11.30
2014,03,07,17,35,11.40
2014,03,07,17,36,11.40
2014,03,07,17,37,11.40
2014,03,07,17,38,11.40
2014,03,07,17,39,11.40
2014,03,07,17,40,11.40
2014,03,07,17,41,11.40
2014,03,07,17,42,11.40
2014,03,07,17,43,11.40
2014,03,07,17,44,11.40
2014,03,07,17,45,11.40
2014,03,07,17,46,11.40
2014,03,07,17,47,11.40
2014,03,07,17,48,11.30
2014,03,07,17,49,11.30
2014,03,07,17,50,11.30
2014,03,07,17,51,11.30